Weather reports worldwide

Advertisment
Monroe, nc, United States of America (2072145): temperature & dewpoint: 07.12.2019 21:00:00 - 13.12.2019 21:00:00 (EST)Monroe, nc, United States of America (2072145): wind speed: 07.12.2019 21:00:00 - 13.12.2019 21:00:00 (EST)Monroe, nc, United States of America (2072145): wind direction: 07.12.2019 21:00:00 - 13.12.2019 21:00:00 (EST)Monroe, nc, United States of America (2072145): reduced air pressure: 07.12.2019 21:00:00 - 13.12.2019 21:00:00 (EST)Monroe, nc, United States of America (2072145): visibility: 07.12.2019 21:00:00 - 13.12.2019 21:00:00 (EST)Monroe, nc, United States of America (2072145): precipitation: 07.12.2019 21:00:00 - 13.12.2019 21:00:00 (EST)
Date & Time tt [°C] td [°C] ff [km/h] ff [kn] dd ppp [hPa] vv [km] rr [mm]
13.12.2019 21:00:00 5,0 3,9 9 5 N 1011,1 2,0 0,0
13.12.2019 20:00:00 5,0 3,9 16 9 NNE 1012,2 15 0,5
13.12.2019 19:00:00 6,1 5,0 11 6 N 1013,1 6 2,5
13.12.2019 18:00:00 5,6 4,4 8 4 NNE 1014,3 8 0,3
13.12.2019 17:00:00 5,6 4,4 13 7 NE 1014,6 10 0,0
13.12.2019 16:00:00 4,4 3,3 11 6 ENE 1015,9 6 1,5
13.12.2019 15:00:00 3,9 2,8 5 3 NE 1017,8 4,8 3,6
13.12.2019 14:00:00 3,3 2,2 13 7 NNE 1018,3 4,0 1,5
13.12.2019 13:00:00 2,8 1,7 15 8 NNE 1019,6 4,0 5,8
13.12.2019 12:00:00 2,8 1,7 18 10 NNE 1022,1 4,0 1,3
13.12.2019 11:00:00 2,2 1,1 15 8 N 1023,1 6 2,0
13.12.2019 10:00:00 2,2 1,1 11 6 NNE 1024,2 6 1,8
13.12.2019 09:00:00 1,7 0,6 15 8 NE 1024,7 6 1,5
13.12.2019 08:00:00 1,7 0,6 22 12 NNE 1025,2 10 5,1
13.12.2019 07:00:00 1,7 0,6 15 8 NNE 1026,3 6 1,0
13.12.2019 06:00:00 1,7 0,0 13 7 N 1026,8 4,0 2,3
13.12.2019 05:00:00 1,7 0,0 15 8 NNE 1027,0 6 0,8
13.12.2019 04:00:00 1,7 0,0 13 7 NNE 1027,6 13 0,0
13.12.2019 03:00:00 1,7 0,0 15 8 NNE 1028,3 10 0,0
13.12.2019 02:00:00 1,7 0,0 18 10 NE 1029,3 10 1,5
13.12.2019 01:00:00 2,2 -1,1 15 8 NNE 1030,6 10 0,3
13.12.2019 00:00:00 3,3 -2,2 16 9 NE 1031,5 16 0,3
12.12.2019 23:00:00 3,9 -3,9 15 8 ENE 1032,2 16 0,0
12.12.2019 22:00:00 4,4 -5,0 13 7 NE 1032,9 16 -
12.12.2019 21:00:00 5,0 -5,0 18 10 NE 1033,6 16 -
12.12.2019 20:00:00 5,0 -5,0 13 7 NE 1033,9 16 -
12.12.2019 19:00:00 5,0 -5,0 16 9 ENE 1034,1 16 -
12.12.2019 18:00:00 4,4 -4,4 13 7 NE 1034,3 16 -
12.12.2019 17:00:00 6,1 -4,4 15 8 NE 1034,6 16 -
12.12.2019 16:00:00 7,2 -3,9 15 8 NE 1035,0 16 -
12.12.2019 15:00:00 7,2 -4,4 15 8 NE 1035,2 16 -
12.12.2019 14:00:00 7,2 -5,0 11 6 ENE 1036,2 16 -
12.12.2019 13:00:00 6,7 -5,6 11 6 - 1037,3 16 -
12.12.2019 12:00:00 5,6 -5,6 21 11 E 1038,6 16 -
12.12.2019 11:00:00 5,0 -5,0 15 8 ENE 1039,4 16 -
12.12.2019 10:00:00 3,3 -5,6 21 11 NE 1039,3 16 -
12.12.2019 09:00:00 1,7 -5,0 16 9 NE 1039,1 16 -
12.12.2019 08:00:00 -0,6 -5,6 13 7 NE 1038,4 16 -
12.12.2019 07:00:00 -1,1 -5,6 15 8 NE 1037,9 16 -
12.12.2019 06:00:00 -0,6 -5,6 13 7 NE 1037,2 16 -
12.12.2019 05:00:00 0,0 -5,6 11 6 NE 1036,7 16 -
12.12.2019 04:00:00 0,0 -5,0 15 8 NE 1036,5 16 -
12.12.2019 03:00:00 -0,6 -4,4 11 6 NNE 1036,1 16 -
12.12.2019 02:00:00 -1,1 -3,3 5 3 ENE 1035,7 16 -
12.12.2019 01:00:00 -0,6 -3,9 0 0 N 1035,3 16 -
12.12.2019 00:00:00 -0,6 -3,9 0 0 N 1035,4 16 -
11.12.2019 23:00:00 -1,1 -3,9 0 0 N 1035,4 16 -
11.12.2019 22:00:00 0,6 -3,9 0 0 N 1035,3 16 -
11.12.2019 21:00:00 1,1 -3,3 0 0 N 1035,0 16 -
11.12.2019 20:00:00 2,2 -3,3 0 0 N 1034,9 16 -
11.12.2019 19:00:00 2,8 -2,2 0 0 N 1034,5 16 -
11.12.2019 18:00:00 4,4 -3,3 0 0 N 1033,3 16 -
11.12.2019 17:00:00 6,7 -6,7 8 4 N 1032,7 16 -
11.12.2019 16:00:00 8,3 -3,9 0 0 N 1032,0 16 -
11.12.2019 15:00:00 8,3 -4,4 11 6 - 1031,7 16 -
11.12.2019 14:00:00 8,3 -4,4 9 5 - 1031,1 16 -
11.12.2019 13:00:00 7,8 -3,9 15 8 NNE 1030,9 16 -
11.12.2019 12:00:00 6,7 -1,7 11 6 NNE 1030,7 16 -
11.12.2019 11:00:00 6,7 0,0 16 9 NE 1030,7 16 -
11.12.2019 10:00:00 5,6 -0,6 18 10 N 1030,3 16 -
11.12.2019 09:00:00 5,0 1,1 24 13 NE 1029,3 16 -
11.12.2019 08:00:00 5,0 2,2 21 11 NNE 1028,3 16 -
11.12.2019 07:00:00 5,6 2,2 13 7 N 1027,5 16 -
11.12.2019 06:00:00 6,1 4,4 13 7 NNE 1026,5 16 0,3
11.12.2019 05:00:00 6,7 4,4 11 6 N 1025,7 16 0,0
11.12.2019 04:00:00 6,7 5,0 13 7 NE 1024,0 16 0,0
11.12.2019 03:00:00 7,8 6,7 8 4 NNW 1023,8 15 0,3
11.12.2019 02:00:00 7,8 6,1 11 6 NNW 1022,6 6 0,3
11.12.2019 01:00:00 8,9 7,2 22 12 NNE 1021,9 6 0,3
11.12.2019 00:00:00 8,9 7,2 15 8 NNE 1021,5 16 0,3
10.12.2019 23:00:00 9,4 7,8 11 6 N 1021,5 16 0,3
10.12.2019 22:00:00 9,4 7,8 13 7 N 1021,3 8 0,3
10.12.2019 21:00:00 10,0 8,9 11 6 N 1021,0 6 0,3
10.12.2019 20:00:00 11,1 8,9 13 7 NW 1020,3 16 0,0
10.12.2019 19:00:00 12,2 8,9 21 11 N 1019,6 - 2,0
10.12.2019 18:00:00 14,4 11,1 18 10 N 1017,8 16 -
10.12.2019 17:00:00 15,6 12,2 24 13 N 1016,2 16 0,0
10.12.2019 16:00:00 23,3 15,0 24 13 WSW 1014,3 16 -
10.12.2019 15:00:00 23,3 15,0 18 10 SSW 1013,4 16 -
10.12.2019 14:00:00 23,3 15,0 34 18 SW 1013,7 16 -
10.12.2019 13:00:00 22,8 15,6 26 14 SSW 1014,2 16 -
10.12.2019 12:00:00 22,8 16,1 26 14 SW 1014,7 16 -
10.12.2019 11:00:00 19,4 15,6 15 8 SSW 1015,7 16 -
10.12.2019 10:00:00 17,8 15,0 16 9 SSW 1016,3 16 -
10.12.2019 09:00:00 15,6 14,4 18 10 SSW 1016,0 13 -
10.12.2019 08:00:00 14,4 13,9 11 6 SSW 1016,3 4,8 -
10.12.2019 07:00:00 10,6 10,0 5 3 SW 1016,9 0,4 -
10.12.2019 06:00:00 10,6 10,0 9 5 SW 1016,3 0,4 -
10.12.2019 05:00:00 10,0 9,4 9 5 SW 1016,4 0,4 -
10.12.2019 04:00:00 10,0 9,4 11 6 SW 1016,5 0,4 -
10.12.2019 03:00:00 10,6 8,9 11 6 SW 1016,5 11 -
10.12.2019 02:00:00 9,4 7,8 9 5 SSW 1016,5 15 -
10.12.2019 01:00:00 8,9 7,2 11 6 SW 1016,7 15 -
10.12.2019 00:00:00 9,4 7,8 9 5 WSW 1017,0 16 -
09.12.2019 23:00:00 10,0 7,2 11 6 SW 1017,2 16 -
09.12.2019 22:00:00 9,4 7,2 11 6 SW 1017,6 16 -
09.12.2019 21:00:00 11,1 7,8 13 7 WSW 1017,7 16 -
09.12.2019 20:00:00 11,1 7,2 11 6 W 1017,9 16 -
09.12.2019 19:00:00 10,6 7,2 8 4 SW 1017,2 16 -
09.12.2019 18:00:00 11,1 6,7 9 5 WSW 1017,1 16 -
09.12.2019 17:00:00 13,3 10,0 11 6 WSW 1016,6 16 -
09.12.2019 16:00:00 13,9 10,0 8 4 WSW 1016,1 16 -
09.12.2019 15:00:00 14,4 10,6 16 9 SSW 1015,7 16 -
09.12.2019 14:00:00 13,9 9,4 13 7 SSW 1016,7 16 -
09.12.2019 13:00:00 11,7 7,8 15 8 SW 1018,0 16 -
09.12.2019 12:00:00 11,1 7,2 8 4 SSW 1019,4 16 -
09.12.2019 11:00:00 8,9 5,0 5 3 - 1020,4 16 -
09.12.2019 10:00:00 7,2 3,3 0 0 N 1021,6 16 -
09.12.2019 09:00:00 6,1 2,8 0 0 N 1021,7 16 -
09.12.2019 08:00:00 5,6 2,2 0 0 N 1021,9 16 0,0
09.12.2019 07:00:00 5,6 2,2 0 0 N 1022,2 16 -
09.12.2019 06:00:00 5,6 -0,6 0 0 N 1022,5 16 -
09.12.2019 05:00:00 5,6 -1,7 5 3 NE 1022,7 16 -
09.12.2019 04:00:00 6,1 -1,7 11 6 NE 1023,2 16 -
09.12.2019 03:00:00 6,1 -2,2 5 3 N 1024,0 16 -
09.12.2019 02:00:00 5,6 -2,8 5 3 NNE 1024,9 16 -
09.12.2019 01:00:00 5,0 -2,8 11 6 NE 1025,0 16 -
09.12.2019 00:00:00 4,4 -3,3 13 7 NE 1025,6 16 -
08.12.2019 23:00:00 5,0 -3,9 9 5 N 1026,4 16 -
08.12.2019 22:00:00 4,4 -3,3 11 6 NE 1027,1 16 -
08.12.2019 21:00:00 5,0 -3,9 9 5 N 1027,2 16 -
08.12.2019 20:00:00 3,9 -3,3 9 5 N 1028,0 16 -
08.12.2019 19:00:00 6,1 -3,9 8 4 NE 1027,4 16 -
08.12.2019 18:00:00 6,7 -3,9 0 0 N 1027,7 16 -
08.12.2019 17:00:00 8,9 -3,9 9 5 NE 1027,9 16 -
08.12.2019 16:00:00 10,0 -5,0 9 5 - 1027,9 16 -
08.12.2019 15:00:00 10,0 -5,0 13 7 NNE 1028,1 16 -
08.12.2019 14:00:00 10,0 -4,4 8 4 NE 1029,2 16 -
08.12.2019 13:00:00 8,9 -3,3 8 4 NNE 1030,3 16 -
08.12.2019 12:00:00 7,8 -3,9 9 5 NE 1031,4 16 -
08.12.2019 11:00:00 6,1 -2,2 5 3 - 1032,5 16 -
08.12.2019 10:00:00 4,4 -2,2 13 7 E 1032,9 16 -
08.12.2019 09:00:00 2,2 -3,9 18 10 NNE 1032,8 16 -
08.12.2019 08:00:00 0,0 -4,4 11 6 NE 1032,7 16 -
08.12.2019 07:00:00 -0,6 -4,4 11 6 NE 1032,6 16 -
08.12.2019 06:00:00 0,6 -3,9 11 6 ENE 1032,1 16 -
08.12.2019 05:00:00 1,7 -3,9 13 7 ENE 1031,4 16 -
08.12.2019 04:00:00 2,2 -3,3 11 6 ENE 1031,3 16 -
08.12.2019 03:00:00 3,3 -3,3 13 7 ENE 1030,7 16 -
08.12.2019 02:00:00 3,9 -3,3 11 6 ENE 1030,7 16 -
08.12.2019 01:00:00 3,9 -2,8 11 6 ENE 1030,7 16 -
08.12.2019 00:00:00 5,0 -0,6 8 4 ENE 1030,7 16 -
07.12.2019 23:00:00 5,0 0,0 5 3 ENE 1030,4 16 -
07.12.2019 22:00:00 6,1 0,6 11 6 ENE 1030,2 16 -
07.12.2019 21:00:00 7,2 1,7 8 4 ENE 1029,6 16 -

tt = temperature
td = dewpoint
ff = wind speed
dd = wind direction
ppp = reduced air pressure
vv = visibility
rr = precipitation

Next stations